Hourly Data Report for October 06, 2016

All times are specified in Local Standard Time (LST). Add 1 hour to adjust for Daylight Saving Time where and when it is observed.

CHARLOTTETOWN A
PRINCE EDWARD ISLAND

46°17'21.000" N
63°07'09.000" W
48.50 m
8300301
71706
YYG

Download Data

Hourly Data (October 2016)
Hourly Data Report for October 6, 2016
Temp Definition
°C
Dew Point Temp Definition
°C
Rel Hum Definition
%
Wind Dir Definition
10's deg

Wind Spd Definition
km/h
Visibility Definition
km
Stn Press Definition
kPa
Hmdx Definition


Wind Chill Definition


Weather Definition


TIME
00:00 Legend Double Dagger 10.8 9.7 93 24 14 24.1 101.75     LegendNANA
01:00 Legend Double Dagger 10.8 9.6 92 24 16 24.1 101.75     LegendNANA
02:00 Legend Double Dagger 10.7 9.6 93 24 16 24.1 101.72     Clear
03:00 Legend Double Dagger 10.4 9.2 92 26 12 24.1 101.66     LegendNANA
04:00 Legend Double Dagger 9.5 8.4 93 27 5 24.1 101.66     LegendNANA
05:00 Legend Double Dagger 9.8 8.7 93 25 9 24.1 101.66     Clear
06:00 Legend Double Dagger 9.5 8.8 95 27 9 24.1 101.69     LegendNANA
07:00 Legend Double Dagger 9.7 9.1 96 28 5 24.1 101.74     LegendNANA
08:00 Legend Double Dagger 11.9 11.0 94 27 8 24.1 101.75     Clear
09:00 Legend Double Dagger 13.8 11.0 83 26 8 24.1 101.75     LegendNANA
10:00 Legend Double Dagger 15.9 11.9 77 26 3 24.1 101.76     LegendNANA
11:00 Legend Double Dagger 17.6 12.4 71 23 4 24.1 101.72     Clear
12:00 Legend Double Dagger 19.2 13.2 68 22 6 24.1 101.66     LegendNANA
13:00 Legend Double Dagger 19.4 13.4 68 18 14 24.1 101.58     LegendNANA
14:00 Legend Double Dagger 19.8 12.7 63 19 19 24.1 101.55     Clear
15:00 Legend Double Dagger 20.1 10.9 55 25 13 24.1 101.51     LegendNANA
16:00 Legend Double Dagger 19.4 9.7 53 25 15 24.1 101.52     LegendNANA
17:00 Legend Double Dagger 18.1 10.3 60 24 12 24.1 101.51     Clear
18:00 Legend Double Dagger 14.0 10.3 78 24 5 24.1 101.53     LegendNANA
19:00 Legend Double Dagger 15.1 10.4 73 24 14 24.1 101.58     LegendNANA
20:00 Legend Double Dagger 13.8 10.3 79 23 10 24.1 101.58     Clear
21:00 Legend Double Dagger 13.2 10.4 83 24 14 24.1 101.60     LegendNANA
22:00 Legend Double Dagger 12.5 10.6 88 24 12 24.1 101.60     LegendNANA
23:00 Legend Double Dagger 12.2 11.0 92 25 10 24.1 101.58     Clear

Notes on Data Quality.

Legend

  • E = Estimated
  • M = Missing
  • NA = Not Available
  • ‡ = Partner data that is not subject to review by the National Climate Archives
Date modified: